GW0360 Weather Reports


Display with metric or nautical units.
time (UTC)temp
F
wind
direction
speed
MPH
gust
MPH
rain 1hr
in
rain 24hr
in
rain mn
in
humidity
%
barometer
mb
20260510231041 70 0 0.0 4.0 0.00 0.00 0.00 27 1021.8
20260510230540 70 0 1.0 5.0 0.00 0.00 0.00 29 1021.8
20260510230051 70 52 0.0 5.0 0.00 0.00 0.00 31 1021.8
20260510225540 70 40 0.0 2.0 0.00 0.00 0.00 28 1021.8
20260510225047 71 0 0.0 6.0 0.00 0.00 0.00 30 1021.8
20260510224554 71 0 0.0 6.0 0.00 0.00 0.00 31 1021.8
20260510224044 71 0 0.0 7.0 0.00 0.00 0.00 28 1021.8
20260510223544 71 24 1.0 7.0 0.00 0.00 0.00 27 1021.9
20260510223051 71 45 1.0 4.0 0.00 0.00 0.00 29 1021.8
20260510222541 70 0 0.0 5.0 0.00 0.00 0.00 29 1021.9
20260510222046 71 77 0.0 5.0 0.00 0.00 0.00 28 1021.9
20260510221554 71 38 0.0 4.0 0.00 0.00 0.00 27 1021.9
20260510221045 71 37 0.0 4.0 0.00 0.00 0.00 28 1021.9
20260510220542 71 0 1.0 4.0 0.00 0.00 0.00 28 1022.0
20260510220048 72 35 0.0 3.0 0.00 0.00 0.00 29 1022.0
20260510215545 72 38 0.0 4.0 0.00 0.00 0.00 30 1021.8
20260510215044 72 0 0.0 9.0 0.00 0.00 0.00 28 1021.8
20260510214555 72 337 0.0 9.0 0.00 0.00 0.00 28 1021.8
20260510214045 71 360 1.0 9.0 0.00 0.00 0.00 28 1021.7
20260510213544 71 0 0.0 5.0 0.00 0.00 0.00 30 1021.6
20260510213059 71 25 1.0 5.0 0.00 0.00 0.00 28 1021.7
20260510212544 71 113 0.0 6.0 0.00 0.00 0.00 33 1021.9
20260510212044 70 128 1.0 6.0 0.00 0.00 0.00 30 1021.7
20260510211553 70 229 2.0 6.0 0.00 0.00 0.00 28 1021.6
20260510211042 71 108 0.0 6.0 0.00 0.00 0.00 30 1021.8
20260510210544 71 53 0.0 5.0 0.00 0.00 0.00 29 1021.9
20260510210059 70 115 1.0 9.0 0.00 0.00 0.00 28 1021.9
20260510205541 71 0 0.0 9.0 0.00 0.00 0.00 31 1022.0
20260510205041 71 0 1.0 9.0 0.00 0.00 0.00 32 1021.9
20260510204606 71 132 0.0 9.0 0.00 0.00 0.00 29 1022.0
20260510204045 70 93 2.0 9.0 0.00 0.00 0.00 31 1022.0
20260510203545 70 0 1.0 9.0 0.00 0.00 0.00 27 1022.0
20260510203051 71 28 0.0 5.0 0.00 0.00 0.00 33 1022.1
20260510202547 70 76 0.0 7.0 0.00 0.00 0.00 30 1022.3
20260510202044 70 41 1.0 7.0 0.00 0.00 0.00 29 1022.2
20260510201606 71 68 0.0 5.0 0.00 0.00 0.00 32 1022.3
20260510201045 71 0 0.0 5.0 0.00 0.00 0.00 30 1022.5
20260510200544 70 23 0.0 8.0 0.00 0.00 0.00 32 1022.4
20260510200059 69 119 3.0 8.0 0.00 0.00 0.00 30 1022.4
20260510195544 70 42 0.0 8.0 0.00 0.00 0.00 34 1022.6
20260510195045 70 53 0.0 4.0 0.00 0.00 0.00 34 1022.5
20260510194551 70 65 0.0 3.0 0.00 0.00 0.00 33 1022.4
20260510194048 70 66 0.0 9.0 0.00 0.00 0.00 33 1022.6
20260510193544 67 0 1.0 9.0 0.00 0.00 0.00 33 1022.7
20260510193050 68 41 0.0 9.0 0.00 0.00 0.00 35 1022.8
20260510192546 67 328 1.0 9.0 0.00 0.00 0.00 37 1022.8
20260510192044 67 40 2.0 9.0 0.00 0.00 0.00 34 1022.6
20260510191559 67 0 1.0 7.0 0.00 0.00 0.00 32 1022.8
20260510191045 67 346 0.0 5.0 0.00 0.00 0.00 34 1022.8
20260510190543 67 0 1.0 7.0 0.00 0.00 0.00 34 1022.9
20260510185546 67 43 0.0 7.0 0.00 0.00 0.00 34 1022.8
20260510185045 67 0 1.0 6.0 0.00 0.00 0.00 31 1022.8
20260510184553 66 44 1.0 6.0 0.00 0.00 0.00 33 1022.8
20260510184044 67 30 0.0 4.0 0.00 0.00 0.00 34 1023.0
20260510183548 67 0 0.0 3.0 0.00 0.00 0.00 36 1022.9
20260510183055 66 37 0.0 3.0 0.00 0.00 0.00 34 1022.9
20260510182546 66 36 0.0 5.0 0.00 0.00 0.00 33 1023.0
20260510182044 66 0 0.0 7.0 0.00 0.00 0.00 35 1023.0
20260510181554 66 59 2.0 7.0 0.00 0.00 0.00 36 1023.1
20260510181046 65 130 0.0 5.0 0.00 0.00 0.00 33 1022.9
20260510180545 66 14 1.0 3.0 0.00 0.00 0.00 34 1022.9
20260510180058 66 13 0.0 3.0 0.00 0.00 0.00 35 1023.0
20260510175545 66 45 0.0 5.0 0.00 0.00 0.00 35 1023.1
20260510175041 65 0 0.0 5.0 0.00 0.00 0.00 34 1023.1
20260510174556 66 0 0.0 4.0 0.00 0.00 0.00 39 1023.2
20260510174047 65 0 0.0 4.0 0.00 0.00 0.00 44 1023.2
20260510173544 64 128 0.0 4.0 0.00 0.00 0.00 39 1023.3
20260510173111 64 127 0.0 4.0 0.00 0.00 0.00 39 1023.5
20260510172548 63 0 1.0 4.0 0.00 0.00 0.00 37 1023.4
20260510172047 64 0 0.0 3.0 0.00 0.00 0.00 40 1023.4
20260510171554 64 0 0.0 2.0 0.00 0.00 0.00 37 1023.4
20260510171044 63 0 0.0 1.0 0.00 0.00 0.00 43 1023.4
20260510170545 63 0 0.0 2.0 0.00 0.00 0.00 41 1023.4
20260510170100 63 0 0.0 4.0 0.00 0.00 0.00 43 1023.6
20260510165541 63 60 0.0 4.0 0.00 0.00 0.00 38 1023.4
20260510165040 63 0 0.0 4.0 0.00 0.00 0.00 39 1023.4
20260510164608 62 0 0.0 2.0 0.00 0.00 0.00 41 1023.2
20260510164044 62 0 0.0 3.0 0.00 0.00 0.00 40 1023.2
20260510163544 62 0 0.0 5.0 0.00 0.00 0.00 41 1023.4
20260510163049 61 34 0.0 5.0 0.00 0.00 0.00 37 1023.5
20260510162540 62 84 2.0 5.0 0.00 0.00 0.00 37 1023.4
20260510162046 62 0 0.0 5.0 0.00 0.00 0.00 42 1023.2
20260510161550 63 0 1.0 7.0 0.00 0.00 0.00 38 1023.1
20260510161041 63 0 0.0 7.0 0.00 0.00 0.00 39 1023.1
20260510160544 62 87 2.0 6.0 0.00 0.00 0.00 38 1022.9
20260510160056 63 71 0.0 5.0 0.00 0.00 0.00 37 1022.9
20260510155545 62 0 0.0 5.0 0.00 0.00 0.00 39 1023.0
20260510155044 62 18 0.0 5.0 0.00 0.00 0.00 39 1023.0
20260510154550 61 42 0.0 6.0 0.00 0.00 0.00 40 1023.1
20260510154043 60 0 0.0 6.0 0.00 0.00 0.00 40 1023.1
20260510153544 60 76 0.0 6.0 0.00 0.00 0.00 39 1023.1
20260510153055 60 346 0.0 5.0 0.00 0.00 0.00 42 1023.0
20260510152545 60 40 1.0 5.0 0.00 0.00 0.00 41 1023.0
20260510152044 60 42 1.0 5.0 0.00 0.00 0.00 40 1022.8
20260510151554 60 0 0.0 5.0 0.00 0.00 0.00 41 1022.9
20260510151041 59 0 1.0 7.0 0.00 0.00 0.00 42 1022.8
20260510150545 59 122 2.0 7.0 0.00 0.00 0.00 42 1022.7
20260510150055 59 103 1.0 7.0 0.00 0.00 0.00 42 1022.4
20260510145541 58 68 1.0 10.0 0.00 0.00 0.00 42 1022.4
20260510145041 58 70 1.0 10.0 0.00 0.00 0.00 43 1022.6
20260510144554 58 36 1.0 10.0 0.00 0.00 0.00 44 1022.4
20260510144046 57 0 2.0 10.0 0.00 0.00 0.00 43 1022.2
20260510143541 57 59 1.0 10.0 0.00 0.00 0.00 43 1022.4
20260510143049 57 124 0.0 7.0 0.00 0.00 0.00 46 1022.2
20260510142544 57 57 1.0 8.0 0.00 0.00 0.00 44 1022.1
20260510142041 57 11 1.0 8.0 0.00 0.00 0.00 44 1022.2
20260510141550 57 0 1.0 7.0 0.00 0.00 0.00 46 1022.2
20260510141040 57 51 0.0 3.0 0.00 0.00 0.00 46 1022.2
20260510140544 57 0 0.0 5.0 0.00 0.00 0.00 46 1022.0
20260510140054 56 0 0.0 6.0 0.00 0.00 0.00 46 1022.0
20260510135541 56 105 1.0 6.0 0.00 0.00 0.00 45 1022.0
20260510135045 56 0 1.0 5.0 0.00 0.00 0.00 46 1022.0
20260510134553 56 0 0.0 8.0 0.00 0.00 0.00 46 1022.0
20260510134043 56 36 1.0 8.0 0.00 0.00 0.00 45 1021.9
20260510133544 56 0 0.0 3.0 0.00 0.00 0.00 45 1021.8
20260510133051 56 0 1.0 6.0 0.00 0.00 0.00 45 1021.8
20260510132541 56 0 0.0 6.0 0.00 0.00 0.00 44 1021.9
20260510132042 56 34 0.0 6.0 0.00 0.00 0.00 44 1021.7
20260510131548 56 135 2.0 6.0 0.00 0.00 0.00 43 1021.6
20260510131044 56 0 0.0 5.0 0.00 0.00 0.00 44 1021.6
20260510130541 56 0 0.0 4.0 0.00 0.00 0.00 44 1021.5
20260510130054 56 59 0.0 8.0 0.00 0.00 0.00 45 1021.4
20260510125540 56 0 1.0 9.0 0.00 0.00 0.00 45 1021.2
20260510125044 56 0 1.0 9.0 0.00 0.00 0.00 43 1021.3
20260510124550 56 25 1.0 8.0 0.00 0.00 0.00 44 1021.3
20260510124045 56 47 1.0 7.0 0.00 0.00 0.00 45 1021.1
20260510123545 56 44 0.0 4.0 0.00 0.00 0.00 46 1021.0
20260510123052 56 59 0.0 8.0 0.00 0.00 0.00 45 1021.1
20260510122540 56 37 1.0 8.0 0.00 0.00 0.00 45 1021.0
20260510122043 56 0 1.0 8.0 0.00 0.00 0.00 44 1020.9
20260510121555 56 0 0.0 5.0 0.00 0.00 0.00 45 1020.9
20260510121044 56 25 0.0 3.0 0.00 0.00 0.00 45 1020.7
20260510120545 56 40 0.0 3.0 0.00 0.00 0.00 45 1020.4
20260510120056 56 0 0.0 3.0 0.00 0.00 0.00 45 1020.3
20260510115544 56 108 0.0 3.0 0.00 0.00 0.00 45 1020.3
20260510115041 56 44 0.0 4.0 0.00 0.00 0.00 45 1020.1
20260510114606 56 26 0.0 5.0 0.00 0.00 0.00 45 1019.9
20260510114044 56 38 0.0 5.0 0.00 0.00 0.00 45 1019.7
20260510113541 56 0 0.0 2.0 0.00 0.00 0.00 46 1019.6
20260510113050 55 0 0.0 3.0 0.00 0.00 0.00 46 1019.7
20260510112541 55 0 0.0 4.0 0.00 0.00 0.00 46 1019.6
20260510112042 55 0 0.0 4.0 0.00 0.00 0.00 46 1019.4
20260510111551 56 0 1.0 4.0 0.00 0.00 0.00 45 1019.3
20260510111040 56 0 0.0 3.0 0.00 0.00 0.00 45 1019.3
20260510110545 56 84 0.0 3.0 0.00 0.00 0.00 46 1019.3
20260510110049 56 0 0.0 3.0 0.00 0.00 0.00 46 1019.3
20260510105545 56 0 0.0 3.0 0.00 0.00 0.00 46 1019.2
20260510105048 56 0 0.0 5.0 0.00 0.00 0.00 46 1019.2
20260510104606 56 0 0.0 8.0 0.00 0.00 0.00 46 1019.2
20260510104044 57 355 1.0 8.0 0.00 0.00 0.00 46 1019.1
20260510103541 57 0 0.0 2.0 0.00 0.00 0.00 47 1019.2
20260510103055 57 0 0.0 5.0 0.00 0.00 0.00 47 1019.1
20260510102541 57 0 0.0 7.0 0.00 0.00 0.00 46 1018.9
20260510102042 58 10 1.0 8.0 0.00 0.00 0.00 47 1019.1
20260510101549 58 0 0.0 8.0 0.00 0.00 0.00 47 1019.0
20260510101044 58 0 0.0 3.0 0.00 0.00 0.00 49 1018.9
20260510100544 58 0 0.0 4.0 0.00 0.00 0.00 49 1018.7
20260510100058 58 0 0.0 4.0 0.00 0.00 0.00 50 1018.5
20260510095547 58 70 0.0 2.0 0.00 0.00 0.00 51 1018.3
20260510095044 58 0 0.0 3.0 0.00 0.00 0.00 53 1018.4
20260510094551 59 0 0.0 3.0 0.00 0.00 0.00 53 1018.5
20260510094045 59 82 0.0 8.0 0.00 0.00 0.00 54 1018.2
20260510093540 59 0 0.0 9.0 0.00 0.00 0.00 53 1018.2
20260510093052 59 0 1.0 9.0 0.00 0.00 0.00 53 1018.1
20260510092545 59 0 0.0 6.0 0.00 0.00 0.00 52 1018.0
20260510092042 59 0 0.0 5.0 0.00 0.00 0.00 51 1017.9
20260510091551 59 0 0.0 9.0 0.00 0.00 0.00 50 1017.8
20260510091041 60 34 0.0 9.0 0.00 0.00 0.00 50 1017.8
20260510090545 60 30 0.0 5.0 0.00 0.00 0.00 52 1017.8
20260510090050 60 23 0.0 3.0 0.00 0.00 0.00 55 1017.8
20260510085540 60 60 0.0 2.0 0.00 0.00 0.00 56 1017.9
20260510085044 60 0 0.0 3.0 0.00 0.00 0.00 57 1017.9
20260510084557 60 0 0.0 4.0 0.00 0.00 0.00 57 1017.7
20260510084041 60 0 0.0 4.0 0.00 0.00 0.00 57 1017.5
20260510083545 60 0 0.0 4.0 0.00 0.00 0.00 57 1017.5
20260510083057 60 0 0.0 5.0 0.00 0.00 0.00 57 1017.4
20260510082543 60 63 0.0 5.0 0.00 0.00 0.00 58 1017.1
20260510082043 60 0 0.0 5.0 0.00 0.00 0.00 58 1017.1
20260510081554 60 0 0.0 4.0 0.00 0.00 0.00 58 1016.9
20260510081041 60 0 0.0 5.0 0.00 0.00 0.00 58 1016.9
20260510080541 60 36 0.0 5.0 0.00 0.00 0.00 60 1016.8
20260510080052 60 0 0.0 4.0 0.00 0.00 0.00 61 1016.9
20260510075541 60 0 0.0 4.0 0.00 0.00 0.00 62 1016.9
20260510075041 60 0 0.0 4.0 0.00 0.00 0.00 62 1016.9
20260510074616 60 0 0.0 4.0 0.00 0.00 0.00 62 1016.8
20260510074045 60 0 0.0 3.0 0.00 0.00 0.00 62 1016.6
20260510073543 60 0 0.0 2.0 0.00 0.00 0.00 63 1016.2
20260510073054 60 0 0.0 0.0 0.00 0.00 0.00 63 1016.4
20260510072541 60 0 0.0 2.0 0.00 0.00 0.00 62 1016.4
20260510072044 61 0 0.0 2.0 0.00 0.00 0.00 63 1016.3
20260510071558 61 0 0.0 2.0 0.00 0.00 0.00 62 1016.3
20260510071045 60 0 0.0 0.0 0.00 0.00 0.00 63 1016.2
20260510070540 60 0 0.0 1.0 0.00 0.00 0.00 63 1016.2
20260510070053 60 0 0.0 1.0 0.00 0.00 0.00 64 1016.2
20260510065544 60 0 0.0 0.0 0.00 0.00 0.00 64 1016.3
20260510065041 60 0 0.0 0.0 0.00 0.00 0.00 63 1016.2
20260510064606 61 0 0.0 0.0 0.00 0.00 0.00 62 1016.3
20260510064043 61 0 0.0 0.0 0.00 0.00 0.00 61 1016.3
20260510063544 61 0 0.0 0.0 0.00 0.00 0.00 61 1016.1
20260510063100 61 0 0.0 1.0 0.00 0.00 0.00 61 1015.9
20260510062542 61 0 0.0 1.0 0.00 0.00 0.00 61 1015.7
20260510062042 61 0 0.0 0.0 0.00 0.00 0.00 61 1015.6
20260510061548 61 0 0.0 0.0 0.00 0.00 0.00 61 1015.8
20260510061041 61 0 0.0 0.0 0.00 0.00 0.00 60 1015.7
20260510060544 61 0 0.0 0.0 0.00 0.00 0.00 61 1015.5
20260510060057 61 0 0.0 0.0 0.00 0.00 0.00 60 1015.4
20260510055543 62 0 0.0 0.0 0.00 0.00 0.00 59 1015.4
20260510055045 62 0 0.0 0.0 0.00 0.00 0.00 59 1015.6
20260510054552 63 0 0.0 0.0 0.00 0.00 0.00 59 1015.7
20260510054041 63 0 0.0 1.0 0.00 0.00 0.00 59 1015.6
20260510053543 63 0 0.0 1.0 0.00 0.00 0.00 57 1015.5
20260510053051 63 0 0.0 0.0 0.00 0.00 0.00 58 1015.4
20260510052543 63 0 0.0 0.0 0.00 0.00 0.00 57 1015.3
20260510052041 64 0 0.0 0.0 0.00 0.00 0.00 57 1015.3
20260510051600 64 0 0.0 0.0 0.00 0.00 0.00 57 1015.4
20260510051042 64 0 0.0 0.0 0.00 0.00 0.00 57 1015.2
20260510050541 64 0 0.0 0.0 0.00 0.00 0.00 55 1015.1
20260510050052 65 0 0.0 1.0 0.00 0.00 0.00 55 1015.0
20260510045541 65 0 0.0 1.0 0.00 0.00 0.00 53 1015.0
20260510045040 65 0 0.0 1.0 0.00 0.00 0.00 53 1015.0
20260510044552 65 0 0.0 1.0 0.00 0.00 0.00 53 1014.8
20260510044043 65 0 0.0 2.0 0.00 0.00 0.00 53 1014.7
20260510043541 66 0 0.0 2.0 0.00 0.00 0.00 54 1014.6
20260510043059 66 0 0.0 2.0 0.00 0.00 0.00 53 1014.5
20260510042543 66 0 0.0 2.0 0.00 0.00 0.00 54 1014.4
20260510042043 66 0 0.0 0.0 0.00 0.00 0.00 52 1014.4
20260510041609 66 0 0.0 0.0 0.00 0.00 0.00 53 1014.3
20260510041044 66 0 0.0 1.0 0.00 0.00 0.00 53 1014.4
20260510040544 66 0 0.0 1.0 0.00 0.00 0.00 54 1014.1
20260510040054 67 0 0.0 1.0 0.00 0.00 0.00 53 1014.1
20260510035543 67 0 0.0 2.0 0.00 0.00 0.00 53 1014.1
20260510035043 67 0 0.0 2.0 0.00 0.00 0.00 51 1014.0
20260510034552 67 0 0.0 1.0 0.00 0.00 0.00 52 1013.9
20260510034046 68 0 0.0 2.0 0.00 0.00 0.00 51 1013.9
20260510033545 68 0 0.0 2.0 0.00 0.00 0.00 52 1013.6
20260510033050 68 0 0.0 2.0 0.00 0.00 0.00 50 1013.3
20260510032541 68 0 0.0 0.0 0.00 0.00 0.00 50 1013.2
20260510032043 68 0 0.0 0.0 0.00 0.00 0.00 50 1013.1
20260510031556 68 0 0.0 0.0 0.00 0.00 0.00 50 1012.9
20260510031040 68 0 0.0 0.0 0.00 0.00 0.00 50 1012.8
20260510030543 68 0 0.0 1.0 0.00 0.00 0.00 51 1012.8
20260510030053 68 0 0.0 1.0 0.00 0.00 0.00 49 1012.8
20260510025540 68 0 0.0 1.0 0.00 0.00 0.00 49 1012.8
20260510025045 69 0 0.0 0.0 0.00 0.00 0.00 50 1012.4
20260510024558 69 0 0.0 2.0 0.00 0.00 0.00 48 1012.3
20260510024048 70 0 0.0 2.0 0.00 0.00 0.00 48 1012.2
20260510023541 70 59 0.0 2.0 0.00 0.00 0.00 47 1012.1
20260510023050 70 0 0.0 5.0 0.00 0.00 0.00 47 1011.9
20260510022546 70 0 0.0 5.0 0.00 0.00 0.00 47 1011.9
20260510022041 70 38 0.0 4.0 0.00 0.00 0.00 48 1011.9
20260510021550 70 0 0.0 4.0 0.00 0.00 0.00 46 1011.9
20260510021041 70 0 0.0 4.0 0.00 0.00 0.00 46 1011.6
20260510020541 71 0 0.0 3.0 0.00 0.00 0.00 46 1011.7
20260510020054 71 44 0.0 3.0 0.00 0.00 0.00 45 1011.6
20260510015541 71 0 0.0 5.0 0.00 0.00 0.00 46 1011.5
20260510015040 71 0 0.0 5.0 0.00 0.00 0.00 45 1011.5
20260510014551 71 0 0.0 1.0 0.00 0.00 0.00 45 1011.5
20260510014041 71 0 0.0 4.0 0.00 0.00 0.00 45 1011.4
20260510013541 72 0 0.0 4.0 0.00 0.00 0.00 44 1011.3
20260510013102 72 0 0.0 4.0 0.00 0.00 0.00 44 1011.2
20260510012543 72 29 0.0 4.0 0.00 0.00 0.00 43 1010.9
20260510012041 72 0 0.0 4.0 0.00 0.00 0.00 43 1010.6
20260510011550 73 0 0.0 4.0 0.00 0.00 0.00 44 1010.7
20260510011042 73 0 0.0 4.0 0.00 0.00 0.00 43 1010.7
20260510010541 73 0 0.0 1.0 0.00 0.00 0.00 44 1010.7
20260510005541 73 0 0.0 2.0 0.00 0.00 0.00 44 1010.7
20260510005040 74 0 0.0 2.0 0.00 0.00 0.00 43 1010.6
20260510004558 74 340 0.0 5.0 0.00 0.00 0.00 42 1010.5
20260510004041 74 0 0.0 5.0 0.00 0.00 0.00 43 1010.3
20260510003544 74 0 0.0 1.0 0.00 0.00 0.00 43 1010.3
20260510003055 74 0 0.0 2.0 0.00 0.00 0.00 42 1010.1
20260510002540 75 0 0.0 3.0 0.00 0.00 0.00 41 1010.2
20260510002041 75 0 0.0 3.0 0.00 0.00 0.00 41 1010.1
20260510001552 75 0 0.0 5.0 0.00 0.00 0.00 41 1009.8
20260510001044 76 0 0.0 5.0 0.00 0.00 0.00 42 1009.8
20260510000545 76 0 0.0 6.0 0.00 0.00 0.00 40 1009.7
20260510000108 76 42 0.0 6.0 0.00 0.00 0.00 40 1009.8
20260509235541 76 35 0.0 6.0 0.00 0.00 0.00 40 1009.8
20260509235041 76 342 1.0 6.0 0.00 0.00 0.00 40 1009.8
20260509234602 77 38 1.0 5.0 0.00 0.00 0.00 39 1009.7
20260509234047 77 22 0.0 5.0 0.00 0.00 0.00 38 1009.7
20260509233541 78 0 1.0 8.0 0.00 0.00 0.00 40 1009.8
20260509233049 77 355 0.0 8.0 0.00 0.00 0.00 41 1009.5
20260509232543 78 27 0.0 9.0 0.00 0.00 0.00 38 1009.6
20260509232044 78 0 0.0 9.0 0.00 0.00 0.00 38 1009.6
20260509231552 78 41 1.0 6.0 0.00 0.00 0.00 38 1009.4